CZ-6A DEB

Satellite information

Favourite Embed

Satellite Type and Status

DEBRISIN ORBIT

Key statistics

Satellite CZ-6A DEB at a glance.

Uptime

1128

Days in orbit

Revolutions

≈ 14.1

Per day

Orbit

SSO

Sun Synchronous Orbit

Inclination

99.0

Latest

Satellite identification and parameters

Extended collection of information and parameters for CZ-6A DEB.

Object identification

Identified? True

Debris? True

Object name: CZ-6A DEB

International designator: 2022-151FG

Object number (NORAD): 54432

Object ID (CCSDS): 54432

Country: PEOPLES REPUBLIC OF CHINA (PRC)

Current information (Y/N): Y

RCS size: SMALL

Orbital parameters

Period: 102.341 minutes

Inclination: 98.993 deg

SMA: 7247.608 km

Apoapsis: 995.444 km

Periapsis: 743.502 km

RAAN: 346.0454 deg

Eccentricy: 0.017381

Argument of periapsis: 152.0624 deg

Mean anomaly: 209.001 deg

Mean motion: 14.07053837 rev/day

Mean motion (dot): 0.00005744 rev/day2

B* drag term: 0.0030165 1/REarth

Two-line elements (TLE)

Creation date: Dec. 12, 2025, 7:16 a.m.

Reference frame: TEME

Reference center: EARTH

Epoch: Dec. 11, 2025, 11:40 p.m. UTC

TLE line 0: 0 CZ-6A DEB

TLE line 1: 1 54432U 22151FG 25345.98665949 .00005744 00000-0 30165-2 0 9991

TLE line 2: 2 54432 98.9930 346.0454 0173810 152.0624 209.0010 14.07053837157209

Live tracking on map

Real-time ground track for satellite CZ-6A DEB.

In-orbit conjunctions

A list of the most updated potential collisions computed for object CZ-6A DEB.

Target Orbit TCA Probability of collision Miss distance Type
IRIDIUM 29 LEO 2025-11-14 05:34:44 0.0002596393 226.0 (m) PAYLOAD
COSMOS 2181 LEO 2025-11-01 05:59:29 0.0001924562 739.0 (m) PAYLOAD
THORAD AGENA D DEB SSO 2024-10-02 08:05:38 0.0001281914 84.0 (m) DEBRIS

Associated space launch

Chinese satellite reported for atmospheric/ocean/environmental/spatial parameter research purposes, details TBD.

CZ-6A DEB was lifted into orbit during the mission ‘Long March 6A | Yunhai 3’, on board a Long March 6A space rocket.

The launch took place on Nov. 11, 2022, 10:52 p.m. from Launch Complex 9A.

For more information about the launch, click the button.

Launch to space Long March 6A | Yunhai 3
Long March 6A | Yunhai 3

Agency: N/A

Status: Launch Successful

Launch date: Nov. 11, 2022, 10:52 p.m. UTC

Rocket: Long March 6A

Launch pad: Launch Complex 9A

Location: Taiyuan Satellite Launch Center, People's Republic of China

...

Latest news about this satellite

There are no fresh news available about this satellite. Check back as we update our databases every day.


Newsletter sign-up

Weekly statistics, charts and insights to help you stay on top of the space industry.